DW4098 Weather Reports


time (UTC)temp
C
wind
direction
speed
KPH
gust
KPH
rain 1hr
cm
rain 24hr
cm
rain mn
cm
humidity
%
barometer
mb
20190425035005 31 324 0.0 3.2 0.00 0.00 0.00 36 1021.4
20190425034005 31 158 0.0 1.6 0.00 0.00 0.00 38 1022.4
20190425033005 31 238 0.0 6.4 0.00 0.00 0.00 38 1022.4
20190425032006 31 15 0.0 3.2 0.00 0.00 0.00 40 1022.4
20190425031005 30 132 1.6 6.4 0.00 0.00 0.00 40 1022.4
20190425030005 30 0 0.0 0.0 0.00 0.00 0.00 40 1022.4
20190425025004 29 284 0.0 3.2 0.00 0.00 0.00 40 1022.4
20190425024005 29 44 1.6 6.4 0.00 0.00 0.00 41 1022.4
20190425023005 29 86 0.0 6.4 0.00 0.00 0.00 44 1022.4
20190425022005 28 0 0.0 0.0 0.00 0.00 0.00 43 1022.4
20190425021005 28 284 1.6 8.0 0.00 0.00 0.00 47 1023.4
20190425020005 27 0 0.0 0.0 0.00 0.00 0.00 46 1023.4
20190425015005 27 294 1.6 8.0 0.00 0.00 0.00 50 1024.4
20190425014005 26 3 1.6 6.4 0.00 0.00 0.00 57 1024.4
20190425013005 25 322 1.6 8.0 0.00 0.00 0.00 52 1024.4
20190425012006 25 352 1.6 9.7 0.00 0.00 0.00 55 1024.4
20190425011005 25 325 0.0 6.4 0.00 0.00 0.00 61 1024.4
20190425010005 24 337 0.0 6.4 0.00 0.00 0.00 62 1024.4
20190425005005 23 310 1.6 14.5 0.00 0.00 0.00 60 1024.4
20190425004005 23 332 1.6 9.7 0.00 0.00 0.00 66 1024.4
20190425003005 22 322 3.2 9.7 0.00 0.00 0.00 68 1024.4
20190425002005 22 1 1.6 9.7 0.00 0.00 0.00 71 1024.4
20190425001005 22 338 3.2 9.7 0.00 0.00 0.00 72 1024.4
20190425000006 21 327 3.2 11.3 0.00 0.00 0.00 73 1024.4
20190424235006 21 283 0.0 3.2 0.00 0.00 0.00 77 1025.4
20190424234007 21 270 0.0 1.6 0.00 0.00 0.00 84 1025.4
20190424233005 20 292 0.0 4.8 0.00 0.00 0.00 86 1025.4
20190424232007 20 225 0.0 3.2 0.00 0.00 0.00 89 1025.4
20190424231005 19 0 0.0 0.0 0.00 0.00 0.00 90 1025.4
20190424230006 18 317 0.0 6.4 0.00 0.00 0.00 94 1025.4
20190424225005 17 0 0.0 0.0 0.00 0.00 0.00 97 1025.4
20190424224005 17 0 0.0 0.0 0.00 0.00 0.00 97 1025.4
20190424223005 16 0 0.0 0.0 0.00 0.00 0.00 98 1025.4
20190424222005 16 0 0.0 0.0 0.00 0.00 0.00 98 1025.4
20190424221005 15 0 0.0 0.0 0.00 0.00 0.00 98 1025.4
20190424220005 15 0 0.0 0.0 0.00 0.00 0.00 98 1025.4
20190424215005 15 0 0.0 0.0 0.00 0.00 0.00 97 1025.4
20190424214006 15 0 0.0 0.0 0.00 0.00 0.00 97 1025.4
20190424213006 15 0 0.0 0.0 0.00 0.00 0.00 98 1025.4
20190424212005 14 0 0.0 0.0 0.00 0.00 0.00 98 1025.4
20190424211006 14 0 0.0 0.0 0.00 0.00 0.00 98 1025.4
20190424210006 13 0 0.0 0.0 0.00 0.00 0.00 98 1025.4
20190424205005 13 0 0.0 0.0 0.00 0.00 0.00 98 1024.4
20190424204006 13 0 0.0 0.0 0.00 0.00 0.00 97 1024.4
20190424203005 13 0 0.0 0.0 0.00 0.00 0.00 97 1024.4
20190424202006 13 0 0.0 0.0 0.00 0.00 0.00 97 1024.4
20190424201006 13 0 0.0 0.0 0.00 0.00 0.00 97 1024.4
20190424200006 13 0 0.0 0.0 0.00 0.00 0.00 97 1024.4
20190424195006 13 0 0.0 0.0 0.00 0.00 0.00 97 1024.4
20190424194005 13 0 0.0 0.0 0.00 0.00 0.00 97 1024.4
20190424193006 13 0 0.0 0.0 0.00 0.00 0.00 96 1024.4
20190424192006 13 0 0.0 0.0 0.00 0.00 0.00 97 1024.4
20190424191006 13 0 0.0 0.0 0.00 0.00 0.00 97 1023.4
20190424190006 13 0 0.0 0.0 0.00 0.00 0.00 97 1023.4
20190424185005 13 0 0.0 0.0 0.00 0.00 0.00 96 1024.4
20190424184006 13 0 0.0 0.0 0.00 0.00 0.00 96 1023.4
20190424183005 13 0 0.0 0.0 0.00 0.00 0.00 96 1023.4
20190424182005 13 0 0.0 0.0 0.00 0.00 0.00 96 1024.4
20190424181006 14 0 0.0 0.0 0.00 0.00 0.00 96 1024.4
20190424180006 14 0 0.0 0.0 0.00 0.00 0.00 96 1024.4
20190424175006 14 0 0.0 0.0 0.00 0.00 0.00 96 1024.4
20190424174006 14 0 0.0 0.0 0.00 0.00 0.00 96 1024.4
20190424173005 14 0 0.0 0.0 0.00 0.00 0.00 96 1024.4
20190424172006 14 0 0.0 0.0 0.00 0.00 0.00 96 1024.4
20190424171006 14 0 0.0 0.0 0.00 0.00 0.00 95 1023.4
20190424170006 14 0 0.0 0.0 0.00 0.00 0.00 95 1023.4
20190424165006 14 0 0.0 0.0 0.00 0.00 0.00 95 1024.4
20190424164006 15 0 0.0 0.0 0.00 0.00 0.00 95 1023.4
20190424163006 15 0 0.0 0.0 0.00 0.00 0.00 95 1023.4
20190424162006 15 0 0.0 0.0 0.00 0.00 0.00 95 1024.4
20190424161006 15 0 0.0 0.0 0.00 0.00 0.00 95 1024.4
20190424160006 15 0 0.0 0.0 0.00 0.00 0.00 95 1024.4
20190424155006 15 0 0.0 0.0 0.00 0.00 0.00 95 1025.4
20190424154006 16 0 0.0 0.0 0.00 0.00 0.00 96 1025.4
20190424153006 16 0 0.0 0.0 0.00 0.00 0.00 96 1025.4
20190424152006 16 0 0.0 0.0 0.00 0.00 0.00 96 1025.4
20190424151007 16 0 0.0 0.0 0.00 0.00 0.00 96 1025.4
20190424150006 16 0 0.0 0.0 0.00 0.00 0.00 96 1025.4
20190424145006 16 1 0.0 1.6 0.00 0.00 0.00 94 1025.4
20190424144006 16 0 0.0 0.0 0.00 0.00 0.00 93 1025.4
20190424143009 16 0 0.0 0.0 0.00 0.00 0.00 94 1025.4
20190424142007 16 0 0.0 0.0 0.00 0.00 0.00 94 1025.4
20190424141006 16 337 0.0 1.6 0.00 0.00 0.00 93 1025.4
20190424140015 16 0 0.0 0.0 0.00 0.00 0.00 92 1025.4
20190424135006 16 0 0.0 0.0 0.00 0.00 0.00 92 1025.4
20190424134006 16 0 0.0 0.0 0.00 0.00 0.00 91 1026.4
20190424133007 16 0 0.0 0.0 0.00 0.00 0.00 91 1026.4
20190424132006 16 0 0.0 0.0 0.00 0.00 0.00 90 1026.4
20190424131006 16 0 0.0 0.0 0.00 0.00 0.00 90 1026.4
20190424130007 16 0 0.0 0.0 0.00 0.00 0.00 90 1026.4
20190424125006 16 0 0.0 0.0 0.00 0.00 0.00 90 1026.4
20190424124007 17 0 0.0 0.0 0.00 0.00 0.00 90 1026.4
20190424123006 17 0 0.0 0.0 0.00 0.00 0.00 89 1026.4
20190424122007 17 0 0.0 0.0 0.00 0.00 0.00 88 1026.4
20190424121007 17 0 0.0 0.0 0.00 0.00 0.00 89 1026.4
20190424120007 17 0 0.0 0.0 0.00 0.00 0.00 88 1026.4
20190424115006 17 0 0.0 0.0 0.00 0.00 0.00 88 1026.4
20190424114007 17 0 0.0 0.0 0.00 0.00 0.00 87 1025.4
20190424113007 17 0 0.0 0.0 0.00 0.00 0.00 87 1025.4
20190424112006 17 0 0.0 0.0 0.00 0.00 0.00 86 1026.4
20190424111006 18 0 0.0 0.0 0.00 0.00 0.00 85 1026.4
20190424110007 18 0 0.0 0.0 0.00 0.00 0.00 85 1026.4
20190424105007 18 0 0.0 0.0 0.00 0.00 0.00 85 1026.4
20190424104006 18 0 0.0 0.0 0.00 0.00 0.00 83 1026.4
20190424103007 18 0 0.0 0.0 0.00 0.00 0.00 83 1026.4
20190424102007 18 0 0.0 0.0 0.00 0.00 0.00 82 1026.4
20190424101006 19 0 0.0 0.0 0.00 0.00 0.00 82 1026.4
20190424100008 19 158 0.0 1.6 0.00 0.00 0.00 83 1026.4
20190424095007 19 0 0.0 0.0 0.00 0.00 0.00 83 1025.4
20190424094007 19 0 0.0 0.0 0.00 0.00 0.00 81 1025.4
20190424093006 20 0 0.0 0.0 0.00 0.00 0.00 81 1025.4
20190424092007 20 0 0.0 0.0 0.00 0.00 0.00 80 1026.4
20190424091007 20 0 0.0 0.0 0.00 0.00 0.00 79 1026.4
20190424090007 20 0 0.0 0.0 0.00 0.00 0.00 77 1026.4
20190424085007 20 0 0.0 0.0 0.00 0.00 0.00 77 1025.4
20190424084008 20 0 0.0 0.0 0.00 0.00 0.00 76 1026.4
20190424083007 21 158 0.0 1.6 0.00 0.00 0.00 75 1026.4
20190424082006 21 135 0.0 1.6 0.00 0.00 0.00 74 1026.4
20190424081007 21 123 1.6 8.0 0.00 0.00 0.00 73 1026.4
20190424080007 21 137 1.6 8.0 0.00 0.00 0.00 71 1026.4
20190424075010 22 143 1.6 9.7 0.00 0.00 0.00 70 1025.4
20190424074007 22 140 4.8 12.9 0.00 0.00 0.00 69 1025.4
20190424073007 22 126 3.2 9.7 0.00 0.00 0.00 67 1025.4
20190424072007 23 130 8.0 14.5 0.00 0.00 0.00 64 1025.4
20190424071007 23 132 8.0 17.7 0.00 0.00 0.00 57 1025.4
20190424070007 24 135 3.2 8.0 0.00 0.00 0.00 45 1025.4
20190424065008 25 141 3.2 9.7 0.00 0.00 0.00 43 1025.4
20190424064007 26 139 4.8 12.9 0.00 0.00 0.00 42 1025.4
20190424063007 26 148 4.8 9.7 0.00 0.00 0.00 42 1025.4
20190424062007 26 138 4.8 12.9 0.00 0.00 0.00 42 1024.4
20190424061109 26 152 4.8 12.9 0.00 0.00 0.00 42 1024.4
20190424060007 27 151 4.8 12.9 0.00 0.00 0.00 42 1024.4
20190424055007 27 145 8.0 14.5 0.00 0.00 0.00 41 1025.4
20190424054007 27 144 6.4 16.1 0.00 0.00 0.00 41 1025.4
20190424053008 28 158 3.2 11.3 0.00 0.00 0.00 40 1025.4
20190424052007 28 143 3.2 9.7 0.00 0.00 0.00 40 1025.4
20190424051007 29 0 0.0 0.0 0.00 0.00 0.00 39 1025.4
20190424050008 29 119 1.6 9.7 0.00 0.00 0.00 40 1025.4
20190424045007 30 0 0.0 0.0 0.00 0.00 0.00 40 1025.4
20190424044007 30 292 0.0 1.6 0.00 0.00 0.00 41 1025.4
20190424043007 29 154 0.0 1.6 0.00 0.00 0.00 40 1025.4
20190424042007 28 135 0.0 4.8 0.00 0.00 0.00 41 1025.4
20190424041007 29 100 1.6 9.7 0.00 0.00 0.00 41 1025.4
20190424040008 28 128 0.0 6.4 0.00 0.00 0.00 41 1025.4